TimePDT,TemperatureF,Dew PointF,Humidity,Sea Level PressureIn,VisibilityMPH,Wind Direction,Wind SpeedMPH,Gust SpeedMPH,PrecipitationIn,Events,Conditions,WindDirDegrees,DateUTC
12:56 AM,53.1,50.0,89,29.99,10.0,Calm,Calm,-,N/A,,Clear,0,2013-08-26 07:56:00
1:56 AM,52.0,50.0,93,29.99,10.0,Calm,Calm,-,N/A,,Partly Cloudy,0,2013-08-26 08:56:00
2:56 AM,57.0,48.0,72,29.99,10.0,Calm,Calm,-,N/A,,Scattered Clouds,0,2013-08-26 09:56:00
3:56 AM,55.9,46.9,72,29.99,10.0,Calm,Calm,-,N/A,,Mostly Cloudy,0,2013-08-26 10:56:00
4:56 AM,57.0,46.0,67,29.99,10.0,Calm,Calm,-,N/A,,Mostly Cloudy,0,2013-08-26 11:56:00
5:56 AM,57.0,45.0,64,29.99,10.0,Calm,Calm,-,N/A,,Overcast,0,2013-08-26 12:56:00
6:56 AM,57.0,43.0,59,30.01,10.0,Calm,Calm,-,N/A,,Scattered Clouds,0,2013-08-26 13:56:00
7:56 AM,59.0,45.0,60,30.03,10.0,Calm,Calm,-,N/A,,Mostly Cloudy,0,2013-08-26 14:56:00
8:56 AM,64.0,46.9,54,30.04,10.0,Calm,Calm,-,N/A,,Overcast,0,2013-08-26 15:56:00
9:56 AM,64.0,44.1,48,30.06,10.0,Calm,Calm,-,N/A,,Overcast,0,2013-08-26 16:56:00
10:56 AM,69.1,46.0,44,30.04,10.0,Variable,3.5,-,N/A,,Clear,0,2013-08-26 17:56:00
11:56 AM,72.0,46.0,40,30.03,10.0,Variable,5.8,-,N/A,,Clear,0,2013-08-26 18:56:00
12:56 PM,73.9,45.0,35,30.02,10.0,Variable,4.6,-,N/A,,Clear,0,2013-08-26 19:56:00
1:56 PM,75.9,44.1,32,30.01,10.0,Variable,5.8,-,N/A,,Clear,0,2013-08-26 20:56:00
2:56 PM,78.1,41.0,27,29.99,10.0,Calm,Calm,-,N/A,,Clear,0,2013-08-26 21:56:00
3:56 PM,77.0,43.0,30,29.98,10.0,Variable,4.6,-,N/A,,Clear,0,2013-08-26 22:56:00
4:56 PM,75.0,43.0,32,29.98,10.0,Calm,Calm,-,N/A,,Clear,0,2013-08-26 23:56:00
5:56 PM,73.9,45.0,35,29.98,10.0,Calm,Calm,-,N/A,,Clear,0,2013-08-27 00:56:00
6:56 PM,71.1,45.0,39,29.98,10.0,Calm,Calm,-,N/A,,Clear,0,2013-08-27 01:56:00
7:56 PM,66.0,45.0,47,29.99,10.0,Calm,Calm,-,N/A,,Clear,0,2013-08-27 02:56:00
8:56 PM,61.0,45.0,56,30.01,10.0,Calm,Calm,-,N/A,,Clear,0,2013-08-27 03:56:00
9:56 PM,55.9,44.1,64,30.03,10.0,Calm,Calm,-,N/A,,Clear,0,2013-08-27 04:56:00
10:56 PM,54.0,42.1,64,30.02,10.0,ENE,3.5,-,N/A,,Clear,60,2013-08-27 05:56:00
11:56 PM,51.1,42.1,71,30.02,10.0,Calm,Calm,-,N/A,,Clear,0,2013-08-27 06:56:00